UAE6767 OMDB-VRMM

Flight info

Callsign UAE6767
Flight time N/A
Altitude 41000
Route ANVIX7F ANVIX L223 TARDI N629 GIDAN P570 KITAL L894 ELBET ELBET1A
Aircraft A359/H-SDE2E3GHIJ3J4J5LM1ORWXY/LB1D1

Departure

Time 2026-05-06 09:50
Airport Dubai International Airport (OMDB)

Arrival

Time N/A
Airport Velana International Airport (VRMM)
Time Latitude Longitude Altitude Speed Heading
2026-05-06 09:23 25.24771 55.36511 31 ft 0 kts 211°
2026-05-06 09:34 25.24782 55.36518 31 ft 4 kts 206°
2026-05-06 09:34 25.24806 55.36530 30 ft 4 kts 206°
2026-05-06 09:35 25.24827 55.36540 30 ft 4 kts 184°
2026-05-06 09:35 25.24847 55.36538 29 ft 4 kts 146°
2026-05-06 09:35 25.24865 55.36519 30 ft 4 kts 124°
2026-05-06 09:35 25.24876 55.36501 29 ft 1 kts 121°
2026-05-06 09:36 25.24878 55.36497 28 ft 0 kts 121°
2026-05-06 09:39 25.24874 55.36504 30 ft 4 kts 122°
2026-05-06 09:39 25.24858 55.36532 31 ft 5 kts 123°
2026-05-06 09:39 25.24836 55.36569 31 ft 6 kts 119°
2026-05-06 09:39 25.24811 55.36627 32 ft 11 kts 114°
2026-05-06 09:40 25.24784 55.36711 33 ft 12 kts 103°
2026-05-06 09:40 25.24764 55.36805 34 ft 13 kts 107°
2026-05-06 09:40 25.24762 55.36946 36 ft 7 kts 52°
2026-05-06 09:41 25.24768 55.36988 36 ft 5 kts 93°
2026-05-06 09:41 25.24752 55.37029 37 ft 9 kts 118°
2026-05-06 09:41 25.24717 55.37093 38 ft 10 kts 123°
2026-05-06 09:41 25.24681 55.37160 39 ft 11 kts 121°
2026-05-06 09:42 25.24638 55.37237 40 ft 13 kts 122°
2026-05-06 09:42 25.24587 55.37328 41 ft 15 kts 122°
2026-05-06 09:42 25.24531 55.37428 42 ft 16 kts 122°
2026-05-06 09:42 25.24474 55.37534 43 ft 17 kts 121°
2026-05-06 09:43 25.24412 55.37648 45 ft 17 kts 122°
2026-05-06 09:43 25.24367 55.37728 47 ft 6 kts 121°
2026-05-06 09:43 25.24344 55.37791 48 ft 10 kts 88°
2026-05-06 09:43 25.24385 55.37854 49 ft 10 kts 39°
2026-05-06 09:44 25.24442 55.37901 51 ft 10 kts 36°
2026-05-06 09:44 25.24501 55.37945 52 ft 10 kts 34°
2026-05-06 09:44 25.24563 55.37995 51 ft 9 kts 42°
2026-05-06 09:44 25.24577 55.38061 51 ft 10 kts 101°
2026-05-06 09:45 25.24545 55.38133 52 ft 11 kts 120°
2026-05-06 09:45 25.24504 55.38207 51 ft 12 kts 121°
2026-05-06 09:45 25.24463 55.38282 50 ft 11 kts 121°
2026-05-06 09:45 25.24413 55.38373 53 ft 18 kts 121°
2026-05-06 09:46 25.24345 55.38494 52 ft 19 kts 121°
2026-05-06 09:46 25.24277 55.38617 59 ft 19 kts 121°
2026-05-06 09:46 25.24206 55.38745 57 ft 21 kts 121°
2026-05-06 09:46 25.24130 55.38882 56 ft 21 kts 118°
2026-05-06 09:47 25.24052 55.39023 61 ft 22 kts 120°
2026-05-06 09:47 25.23971 55.39168 65 ft 22 kts 121°
2026-05-06 09:47 25.23893 55.39308 68 ft 20 kts 121°
2026-05-06 09:47 25.23818 55.39447 67 ft 18 kts 121°
2026-05-06 09:48 25.23800 55.39474 72 ft 10 kts 132°
2026-05-06 09:48 25.23703 55.39471 81 ft 19 kts 211°
2026-05-06 09:48 25.23650 55.39428 85 ft 8 kts 237°
2026-05-06 09:48 25.23648 55.39383 84 ft 12 kts 284°
2026-05-06 09:49 25.23744 55.39204 68 ft 49 kts 301°
2026-05-06 09:49 25.24055 55.38649 56 ft 118 kts 301°
2026-05-06 09:49 25.24585 55.37676 57 ft 174 kts 303°
2026-05-06 09:49 25.25007 55.36892 431 ft 178 kts 302°
2026-05-06 09:50 25.25651 55.35780 1265 ft 172 kts 302°
2026-05-06 09:50 25.26366 55.34636 1632 ft 187 kts 302°
2026-05-06 09:50 25.27114 55.33424 2001 ft 193 kts 302°
2026-05-06 09:50 25.27878 55.32191 2430 ft 196 kts 302°
2026-05-06 09:51 25.28647 55.30937 2915 ft 199 kts 302°
2026-05-06 09:51 25.29212 55.29543 3344 ft 200 kts 278°
2026-05-06 09:51 25.29024 55.28028 3728 ft 202 kts 248°
2026-05-06 09:51 25.28454 55.26600 4139 ft 205 kts 242°
2026-05-06 09:52 25.27818 55.25176 4581 ft 208 kts 241°
2026-05-06 09:52 25.27172 55.23739 4998 ft 210 kts 241°
2026-05-06 09:52 25.26525 55.22280 5431 ft 212 kts 241°
2026-05-06 09:52 25.25874 55.20803 5808 ft 218 kts 241°
2026-05-06 09:53 25.25190 55.19235 5978 ft 236 kts 242°
2026-05-06 09:53 25.24321 55.17651 6283 ft 245 kts 225°
2026-05-06 09:53 25.22885 55.16719 6615 ft 249 kts 191°
2026-05-06 09:53 25.21147 55.16639 7012 ft 253 kts 174°
2026-05-06 09:54 25.19426 55.17059 7488 ft 256 kts 155°
2026-05-06 09:54 25.17984 55.18209 7875 ft 263 kts 131°
2026-05-06 09:54 25.16967 55.19943 8164 ft 275 kts 118°
2026-05-06 09:54 25.16085 55.21842 8618 ft 280 kts 117°
2026-05-06 09:55 25.15202 55.23776 9126 ft 284 kts 117°
2026-05-06 09:55 25.14294 55.25725 9671 ft 286 kts 117°
2026-05-06 09:55 25.13375 55.27681 10180 ft 288 kts 117°
2026-05-06 09:55 25.12444 55.29654 10689 ft 290 kts 117°
2026-05-06 09:56 25.11501 55.31637 11170 ft 294 kts 117°
2026-05-06 09:56 25.10544 55.33640 11672 ft 296 kts 117°
2026-05-06 09:56 25.09645 55.35699 12164 ft 299 kts 114°
2026-05-06 09:56 25.09167 55.36875 12439 ft 301 kts 114°
2026-05-06 09:57 25.08321 55.38970 12910 ft 304 kts 114°
2026-05-06 09:57 25.07449 55.41118 13402 ft 308 kts 114°
2026-05-06 09:57 25.06577 55.43294 13799 ft 314 kts 112°
2026-05-06 09:57 25.05714 55.45556 13997 ft 325 kts 112°
2026-05-06 09:58 25.04821 55.47909 14190 ft 337 kts 112°
2026-05-06 09:58 25.03898 55.50330 14381 ft 348 kts 112°
2026-05-06 09:58 25.02946 55.52820 14563 ft 358 kts 112°
2026-05-06 09:58 25.01927 55.55358 14733 ft 367 kts 116°
2026-05-06 09:59 25.00678 55.57857 14902 ft 376 kts 120°
2026-05-06 09:59 24.99328 55.60370 15066 ft 384 kts 120°
2026-05-06 09:59 24.97939 55.62921 15280 ft 390 kts 120°
2026-05-06 09:59 24.96539 55.65495 15567 ft 394 kts 120°
2026-05-06 10:00 24.95128 55.68095 15888 ft 396 kts 120°
2026-05-06 10:00 24.93657 55.70627 16199 ft 399 kts 124°
2026-05-06 10:00 24.92035 55.73126 16530 ft 401 kts 126°
2026-05-06 10:00 24.90381 55.75613 16864 ft 403 kts 126°
2026-05-06 10:01 24.88719 55.78108 17194 ft 405 kts 126°
2026-05-06 10:01 24.87046 55.80622 17523 ft 408 kts 126°
2026-05-06 10:01 24.85368 55.83147 17855 ft 410 kts 126°
2026-05-06 10:01 24.83680 55.85689 18163 ft 412 kts 126°
2026-05-06 10:02 24.81969 55.88235 18432 ft 414 kts 126°
2026-05-06 10:02 24.80234 55.90787 18705 ft 417 kts 126°
2026-05-06 10:02 24.78456 55.93329 18969 ft 420 kts 130°
2026-05-06 10:02 24.76487 55.95708 19241 ft 422 kts 134°
2026-05-06 10:03 24.74386 55.97980 19502 ft 425 kts 136°
2026-05-06 10:03 24.72210 56.00195 19772 ft 427 kts 137°
2026-05-06 10:03 24.69994 56.02396 20036 ft 429 kts 138°
2026-05-06 10:03 24.67774 56.04601 20312 ft 431 kts 137°
2026-05-06 10:04 24.65551 56.06835 20592 ft 433 kts 137°